Location: Devore Heights
(34.2372°N, 117.4156°W)
Time: 08:00:14
(UTC+00:00)

Vanguard 1 Rocket - Pass Details

Date: 14 September 2024
Orbit: 650 x 4218 km, 34.3° (Epoch: 09 October)

Event Time Altitude Azimuth Distance (km) Brightness Sun altitude
Rises 11:13:29 0° 238° (WSW) 5,177 - -28.5°
Reaches altitude 10° 11:16:12 10° 236° (WSW) 4,528 - -27.9°
Exits shadow 11:21:54 37° 228° (SW) 3,491 9.8 -26.9°
Maximum altitude 11:30:07 73° 155° (SSE) 3,253 10.0 -25.3°
Drops below altitude 10° 11:54:47 10° 77° (ENE) 7,392 13.2 -20.6°
Sets 12:00:50 0° 76° (ENE) 8,463 14.0 -19.4°
